{"data":{"norad_id":66536,"epoch":"2026-05-25T04:51:55.180800Z","epoch_age_seconds":51346,"freshness":"FRESH","line1":"1 66536U 25265W   26145.20272200  .00003827  00000+0  14848-3 0  9996","line2":"2 66536  42.9984 205.9546 0000060 145.9261 214.1595 15.27585609 28813","mean_motion":15.27585609,"eccentricity":6.0e-6,"inclination_deg":42.9984,"raan_deg":205.9546,"arg_perigee_deg":145.9261,"mean_anomaly_deg":214.1595,"bstar":0.00014848,"rev_number":2881,"period_min":94.266402584315,"perigee_km":482.99113371141,"apogee_km":483.07346774302,"semimajor_km":6861.1693007272,"source":"CELESTRAK","updated_at":"2026-05-25T13:38:21.253566Z"}}